PST,Max TemperatureF,Mean TemperatureF,Min TemperatureF,Max Dew PointF,MeanDew PointF,Min DewpointF,Max Humidity, Mean Humidity, Min Humidity, Max Sea Level PressureIn, Mean Sea Level PressureIn, Min Sea Level PressureIn, Max VisibilityMiles, Mean VisibilityMiles, Min VisibilityMiles, Max Wind SpeedMPH, Mean Wind SpeedMPH, Max Gust SpeedMPH,PrecipitationIn, CloudCover, Events, WindDirDegrees
2011-11-1,51,41,30,42,35,29,100,91,71,30.56,30.48,30.30,10,8,1,10,3,14,0.00,0,,95
2011-11-2,53,43,33,46,41,27,100,91,37,30.26,29.89,29.80,10,6,2,20,5,31,0.98,5,Rain,138
2011-11-3,50,41,31,42,38,32,100,94,69,29.92,29.87,29.83,10,5,0,10,3,14,0.50,5,Fog-Rain,84
2011-11-4,48,38,27,41,33,27,100,92,71,29.97,29.92,29.85,10,6,0,8,3,10,0.00,4,Fog,95
2011-11-5,51,42,32,38,36,33,96,83,59,29.85,29.78,29.75,10,10,10,10,4,14,0.00,6,,71
2011-11-6,50,40,30,41,34,30,100,91,63,30.17,30.05,29.85,10,6,1,7,1,8,T,4,Rain,63
2011-11-7,48,39,30,46,42,28,100,96,93,30.21,30.18,30.17,10,6,1,12,3,17,0.60,8,Rain,155
2011-11-8,54,50,45,47,45,42,100,92,74,30.22,30.19,30.15,10,7,2,13,5,18,0.55,7,Rain,109
2011-11-9,58,52,46,49,47,44,86,77,67,30.16,30.13,30.10,10,10,10,17,7,26,T,8,,145
2011-11-10,59,48,37,48,43,37,97,82,51,30.10,30.03,29.88,10,10,2,9,2,13,0.00,3,,109
2011-11-11,51,45,38,50,44,33,100,90,65,29.86,29.66,29.58,10,5,1,24,10,38,1.16,8,Rain,270
2011-11-12,51,43,34,50,42,33,100,94,77,29.84,29.73,29.59,10,6,1,20,5,30,1.24,7,Rain,207
2011-11-13,50,47,44,46,43,39,100,86,71,29.90,29.87,29.79,10,8,2,18,6,25,0.24,8,Rain,274
2011-11-14,49,42,35,41,36,32,100,81,56,30.15,30.03,29.89,10,10,10,17,4,29,0.02,5,Rain,293
2011-11-15,49,40,30,39,34,29,100,89,61,30.29,30.25,30.16,10,10,10,8,3,12,T,1,,87
2011-11-16,50,42,35,48,40,33,100,95,86,30.20,29.71,29.55,10,5,1,16,10,36,0.98,8,Rain,191
2011-11-17,37,,37,,,,,,,29.81,29.70,29.56,10,8,2,10,6,32,0.31,7,Rain,205
2011-11-18,44,37,30,36,32,29,96,88,65,29.75,29.64,29.57,10,10,9,6,2,,0.05,3,Rain,70
2011-11-19,44,35,25,34,29,24,96,87,65,29.94,29.84,29.74,10,10,10,8,3,10,0.00,0,,79
2011-11-20,40,32,23,32,28,22,96,86,75,29.94,29.86,29.68,10,10,10,13,5,18,0.00,3,,85
2011-11-21,51,46,40,51,45,33,100,97,73,29.65,29.51,29.30,10,6,2,24,13,45,1.50,8,Rain,168
2011-11-22,52,47,41,52,46,40,100,96,86,29.58,29.40,29.26,10,5,1,33,8,51,1.60,8,Rain,193
2011-11-23,48,41,34,43,39,34,100,94,71,29.82,29.59,29.34,10,6,0,15,2,18,0.46,6,Fog-Rain,4
2011-11-24,49,42,34,44,37,31,100,87,60,29.90,29.56,29.39,10,6,0,28,13,39,1.31,7,Fog-Rain,171
2011-11-25,47,40,33,38,35,31,96,78,60,30.36,30.25,29.95,10,10,5,20,7,30,0.01,5,Rain,102
2011-11-26,52,48,43,49,46,39,100,91,80,30.25,30.15,30.00,10,6,2,20,12,35,0.43,8,Rain,163
2011-11-27,52,44,36,52,46,36,100,94,79,30.39,30.04,29.84,10,5,1,25,10,40,2.08,7,Rain,221
2011-11-28,48,41,33,40,36,32,100,95,74,30.51,30.44,30.39,10,6,0,10,3,12,0.01,4,Fog-Rain,84
2011-11-29,47,42,37,45,41,32,100,92,76,30.43,30.17,30.07,10,7,1,14,5,24,0.51,8,Rain,156
2011-11-30,50,41,31,41,37,30,100,93,68,30.78,30.58,30.22,10,7,1,12,4,15,0.00,2,,31